[[{"header":{"parameterUnit":"m.s-1","parameterCategory":1,"la1":30.2991,"la2":30.254,"lo1":-89.0895,"lo2":-89.0444,"dy":0.0017,"dx":0.0017,"nx":28,"ny":28,"refTime":"2024-07-25T09:00:00:Z","depth":0,"parameterNumber":2,"parameterNumberName":"U-component_of_WINDS"},"data":[0,0,0,0,0,0,0,0,0,0,0,0,0,0,0,0,0,0,0,0,0,0,0,0,0,0,0,0,0,0,0,0,0,0,0,0,0,0,0,0,0,0,0,0,0,0,0,0,0,0,0,0,0,0,0,0,0,0,-1.4978,-1.4978,0,-1.4969,-1.4969,-1.4968,-1.4915,-1.4914,-1.4912,-1.4911,-1.4901,-1.4902,-1.4903,0,0,0,0,0,0,0,0,0,0,0,0,0,-1.4952,-1.4953,-1.4978,-1.4978,-1.4978,-1.4969,-1.4969,-1.4968,-1.4915,-1.4914,-1.4912,-1.4911,-1.4901,-1.4902,-1.4903,0,0,0,0,0,0,0,0,0,0,0,0,0,-1.4955,-1.4953,-1.4978,-1.495,-1.4948,-1.4969,-1.4968,-1.4968,-1.4915,-1.4914,-1.4912,-1.491,-1.4901,-1.4902,-1.4904,-1.4951,0,0,-1.4908,-1.4908,0,0,0,0,0,0,0,0,-1.4955,-1.4956,-1.4955,-1.4952,-1.4949,-1.4941,-1.4956,-1.4962,-1.4916,-1.4928,-1.4911,-1.4909,-1.4916,-1.4916,-1.4919,-1.495,-1.495,-1.4908,-1.4909,-1.4909,-1.491,0,0,0,0,0,0,0,-1.4955,-1.4956,-1.4974,-1.4955,-1.4951,-1.4939,-1.4937,-1.4957,-1.4933,-1.4927,-1.4923,-1.4922,-1.4914,-1.4917,-1.4918,-1.495,-1.4908,-1.4909,-1.491,-1.4911,-1.5021,-1.5023,0,0,0,0,0,0,-1.4958,-1.4956,-1.4975,-1.4974,-1.4947,-1.4941,-1.4939,-1.4946,-1.4932,-1.4929,-1.4924,-1.492,-1.4916,-1.4916,-1.4917,-1.4972,-1.4909,-1.4911,-1.4912,-1.5019,-1.5021,-1.5024,0,0,0,0,0,0,-1.4958,-1.4961,-1.4975,-1.4964,-1.4965,-1.4943,-1.4951,-1.4946,-1.4949,-1.493,-1.4926,-1.4931,-1.4914,-1.4915,-1.4943,-1.4971,-1.4911,-1.4913,-1.5016,-1.502,-1.5023,-1.5082,0,0,0,0,0,0,-1.4957,-1.4961,-1.4978,-1.4965,-1.4966,-1.5001,-1.4953,-1.4948,-1.4952,-1.4946,-1.4936,-1.4933,-1.4913,-1.4941,-1.4945,-1.4972,-1.4914,-1.5014,-1.5018,-1.5022,-1.5077,-1.5087,-1.5095,0,0,0,0,0,-1.4957,-1.4995,-1.4979,-1.4981,-1.4987,-1.5002,-1.5003,-1.4979,-1.4954,-1.4972,-1.496,-1.4933,-1.4968,-1.4945,-1.4948,-1.4976,-1.5012,-1.5017,-1.5021,-1.5074,-1.5085,-1.5095,0,0,0,0,0,0,-1.501,-1.4992,-1.4975,-1.5009,-1.5008,-1.4993,-1.5014,-1.4992,-1.4997,-1.4992,-1.4963,-1.4961,-1.4993,-1.4988,-1.4962,-1.5022,-1.4985,-1.4991,-1.5024,-1.5035,-1.5043,-1.5044,-1.4915,0,0,0,0,0,-1.5027,-1.504,-1.5024,-1.5056,-1.5056,-1.5036,-1.5042,-1.5024,-1.5021,-1.502,-1.501,-1.5009,-1.5019,-1.5027,-1.5036,-1.5077,-1.5074,-1.5098,-1.5107,-1.5114,-1.5119,-1.5142,-1.5152,-1.5039,-1.5039,-1.5039,0,0,-1.5059,-1.5051,-1.5061,-1.5067,-1.5063,-1.5079,-1.5035,-1.5053,-1.5064,-1.5023,-1.5048,-1.5041,-1.5038,-1.5073,-1.5088,-1.5069,-1.515,-1.512,-1.5126,-1.5127,-1.5147,-1.5158,-1.5168,-1.5042,-1.5042,-1.5041,0,0,-1.5127,-1.5122,-1.5149,-1.5147,-1.5143,-1.513,-1.5136,-1.5126,-1.512,-1.5145,-1.5114,-1.5128,-1.5147,-1.5146,-1.5148,-1.5219,-1.5194,-1.5222,-1.5267,-1.529,-1.5298,-1.5306,-1.5332,-1.5341,-1.5228,-1.5228,-1.5228,0,-1.5168,-1.519,-1.5166,-1.5186,-1.519,-1.5154,-1.5181,-1.5181,-1.518,-1.5183,-1.5163,-1.5187,-1.5182,-1.5217,-1.5234,-1.5237,-1.5244,-1.5223,-1.5299,-1.5307,-1.5314,-1.5337,-1.5347,-1.5231,-1.5231,-1.523,-1.523,0,-1.5241,-1.5257,-1.5279,-1.528,-1.5286,-1.531,-1.529,-1.53,-1.5283,-1.5272,-1.5299,-1.5292,-1.53,-1.5307,-1.529,-1.534,-1.5329,-1.5304,-1.5267,-1.5328,-1.535,-1.5359,-1.5236,-1.5235,-1.5234,-1.5233,0,0,-1.5339,-1.5329,-1.5337,-1.5338,-1.5332,-1.5344,-1.5367,-1.5375,-1.5384,-1.5386,-1.5404,-1.5423,-1.5401,-1.5403,-1.5386,-1.5406,-1.5463,-1.5379,-1.5378,-1.5395,-1.5518,-1.5536,-1.5547,-1.5447,-1.5449,-1.545,-1.5519,0,-1.5404,-1.5442,-1.5423,-1.5464,-1.5479,-1.5446,-1.5467,-1.5466,-1.5457,-1.5469,-1.5459,-1.5473,-1.5442,-1.5444,-1.5462,-1.5452,-1.5487,-1.5447,-1.5465,-1.5466,-1.5466,-1.5559,-1.5577,-1.5642,-1.5527,-1.5528,-1.5529,0,-1.5484,-1.549,-1.5533,-1.5526,-1.5532,-1.555,-1.5557,-1.5568,-1.5568,-1.556,-1.5564,-1.5543,-1.5566,-1.5531,-1.5562,-1.5535,-1.5542,-1.5539,-1.5541,-1.554,-1.55,-1.5561,-1.5662,-1.5671,-1.5543,-1.5542,-1.5541,0,-1.5551,-1.557,-1.5599,-1.56,-1.5593,-1.5607,-1.5605,-1.5602,-1.5609,-1.5615,-1.5619,-1.5628,-1.5632,-1.564,-1.5622,-1.5598,-1.5657,-1.5619,-1.5651,-1.5652,-1.5664,-1.5663,-1.5767,-1.5669,-1.5669,-1.5669,-1.5669,0,-1.5625,-1.5652,-1.5629,-1.5646,-1.5677,-1.5655,-1.5686,-1.568,-1.5678,-1.5695,-1.5668,-1.5684,-1.566,-1.5674,-1.566,-1.5689,-1.5691,-1.5686,-1.5682,-1.5688,-1.5688,-1.5691,-1.5685,-1.5672,-1.5671,-1.5671,-1.567,0,-1.5704,-1.569,-1.5719,-1.5711,-1.571,-1.5732,-1.5725,-1.5742,-1.5732,-1.5753,-1.5757,-1.5742,-1.5757,-1.5741,-1.5754,-1.5745,-1.5784,-1.5774,-1.5784,-1.5781,-1.5814,-1.5811,-1.5922,-1.5936,-1.583,-1.5831,-1.5832,0,-1.5752,-1.5772,-1.5767,-1.5777,-1.5776,-1.5791,-1.5798,-1.5778,-1.5787,-1.5789,-1.5805,-1.5818,-1.5827,-1.5853,-1.5844,-1.5855,-1.5844,-1.5882,-1.5845,-1.5851,-1.5844,-1.5843,-1.5845,-1.5889,-1.5891,-1.5892,-1.5893,0,-1.5837,-1.583,-1.5841,-1.5851,-1.586,-1.5867,-1.5871,-1.588,-1.586,-1.5871,-1.5887,-1.5894,-1.5909,-1.5923,-1.5931,-1.5929,-1.5908,-1.5905,-1.5913,-1.5918,-1.5924,-1.5921,-1.5804,-1.5902,-1.5901,-1.59,-1.59,-1.5899,-1.5902,-1.5919,-1.5919,-1.5933,-1.5935,-1.594,-1.5955,-1.5949,-1.5961,-1.5972,-1.596,-1.5979,-1.598,-1.5989,-1.599,-1.6005,-1.5989,-1.6001,-1.6003,-1.6006,-1.6011,-1.5922,-1.6007,-1.6007,-1.6006,-1.6006,-1.6006,0,-1.5986,-1.5985,-1.5998,-1.6006,-1.6017,-1.5998,-1.6002,-1.6013,-1.6031,-1.6033,-1.6044,-1.6063,-1.6076,-1.6069,-1.6081,-1.6095,-1.6085,-1.6098,-1.6097,-1.6097,-1.6025,-1.6017,-1.6106,-1.6106,-1.6106,-1.6106,-1.6106,-1.6106,-1.6031,-1.6059,-1.6052,-1.6082,-1.6081,-1.61,-1.6105,-1.611,-1.6112,-1.6135,-1.6146,-1.6142,-1.6141,-1.6153,-1.6165,-1.6162,-1.6168,-1.6185,-1.6179,-1.6111,-1.6102,-1.6092,-1.6084,-1.6186,-1.6186,-1.6249,-1.625,-1.625]},{"header":{"parameterUnit":"m.s-1","parameterCategory":1,"la1":30.2991,"la2":30.254,"lo1":-89.0895,"lo2":-89.0444,"dy":0.0017,"dx":0.0017,"nx":28,"ny":28,"refTime":"2024-07-25T09:00:00:Z","depth":0,"parameterNumber":3,"parameterNumberName":"V-component_of_WINDS"},"data":[0,0,0,0,0,0,0,0,0,0,0,0,0,0,0,0,0,0,0,0,0,0,0,0,0,0,0,0,0,0,0,0,0,0,0,0,0,0,0,0,0,0,0,0,0,0,0,0,0,0,0,0,0,0,0,0,0,0,-0.7635,-0.7636,0,-0.773,-0.7731,-0.7732,-0.779,-0.7791,-0.7791,-0.7791,-0.7884,-0.7886,-0.7888,0,0,0,0,0,0,0,0,0,0,0,0,0,-0.7498,-0.75,-0.7634,-0.7636,-0.7637,-0.773,-0.7731,-0.7732,-0.779,-0.7791,-0.7791,-0.7791,-0.7883,-0.7886,-0.7888,0,0,0,0,0,0,0,0,0,0,0,0,0,-0.7571,-0.7501,-0.7634,-0.7677,-0.7682,-0.7729,-0.7731,-0.7733,-0.779,-0.7791,-0.7791,-0.7792,-0.7882,-0.7886,-0.7889,-0.79,0,0,-0.7899,-0.79,0,0,0,0,0,0,0,0,-0.7567,-0.7576,-0.767,-0.7674,-0.768,-0.7749,-0.7717,-0.7788,-0.779,-0.7749,-0.7791,-0.7792,-0.7838,-0.7845,-0.7862,-0.7904,-0.7908,-0.7899,-0.7901,-0.7902,-0.7903,0,0,0,0,0,0,0,-0.7562,-0.7572,-0.7672,-0.7671,-0.7677,-0.769,-0.7701,-0.7731,-0.779,-0.7753,-0.7757,-0.7768,-0.7841,-0.7859,-0.7865,-0.7909,-0.7899,-0.7902,-0.7904,-0.7905,-0.7965,-0.7964,0,0,0,0,0,0,-0.7551,-0.7568,-0.7669,-0.7675,-0.7624,-0.7692,-0.7704,-0.7726,-0.779,-0.78,-0.7767,-0.777,-0.7853,-0.7861,-0.7868,-0.7885,-0.7902,-0.7905,-0.7907,-0.7965,-0.7965,-0.7964,0,0,0,0,0,0,-0.7547,-0.7559,-0.7665,-0.7623,-0.7637,-0.7694,-0.7718,-0.7728,-0.7745,-0.7801,-0.7811,-0.7775,-0.7854,-0.7863,-0.7892,-0.7889,-0.7907,-0.791,-0.7965,-0.7965,-0.7964,-0.7919,0,0,0,0,0,0,-0.7543,-0.7558,-0.7564,-0.7622,-0.7639,-0.7689,-0.7718,-0.7729,-0.7751,-0.7756,-0.781,-0.782,-0.7855,-0.7886,-0.7895,-0.7894,-0.7912,-0.7966,-0.7965,-0.7965,-0.7921,-0.7916,-0.7913,0,0,0,0,0,-0.7538,-0.7546,-0.7564,-0.7575,-0.7648,-0.7688,-0.7698,-0.7739,-0.7751,-0.7757,-0.7792,-0.7818,-0.7888,-0.7889,-0.7899,-0.7899,-0.7966,-0.7965,-0.7965,-0.7922,-0.7917,-0.7913,0,0,0,0,0,0,-0.7483,-0.7554,-0.7575,-0.7602,-0.7639,-0.7698,-0.7707,-0.7733,-0.7766,-0.7768,-0.7817,-0.7828,-0.7852,-0.7878,-0.7878,-0.7912,-0.793,-0.7931,-0.7894,-0.789,-0.7886,-0.7879,-0.7915,0,0,0,0,0,-0.7475,-0.7503,-0.7563,-0.7581,-0.7599,-0.7649,-0.7668,-0.7697,-0.7737,-0.7752,-0.779,-0.7825,-0.7856,-0.7874,-0.7905,-0.7925,-0.7937,-0.7929,-0.7925,-0.7922,-0.7922,-0.7934,-0.7931,-0.7961,-0.7961,-0.7961,0,0,-0.7456,-0.7499,-0.7513,-0.7571,-0.7603,-0.763,-0.7662,-0.7689,-0.7709,-0.7756,-0.7785,-0.7814,-0.7857,-0.7881,-0.7893,-0.7903,-0.7917,-0.7921,-0.7918,-0.792,-0.7933,-0.793,-0.7928,-0.7961,-0.7961,-0.7961,0,0,-0.7437,-0.7472,-0.7492,-0.7523,-0.7572,-0.7606,-0.761,-0.7665,-0.7687,-0.7718,-0.7753,-0.7776,-0.7827,-0.7857,-0.7878,-0.787,-0.7895,-0.7878,-0.7859,-0.787,-0.7867,-0.7865,-0.7862,-0.786,-0.7879,-0.7878,-0.7878,0,-0.7408,-0.7452,-0.7497,-0.7523,-0.7547,-0.7592,-0.7611,-0.7638,-0.7694,-0.7708,-0.7719,-0.7785,-0.7817,-0.7848,-0.7846,-0.7862,-0.7868,-0.7872,-0.7864,-0.7863,-0.7862,-0.7859,-0.7858,-0.7876,-0.7876,-0.7877,-0.7877,0,-0.7413,-0.7443,-0.7452,-0.7506,-0.7531,-0.7553,-0.76,-0.762,-0.7646,-0.7678,-0.7708,-0.7748,-0.7788,-0.7797,-0.7823,-0.7832,-0.7837,-0.7855,-0.7874,-0.7856,-0.7854,-0.7853,-0.7873,-0.7874,-0.7874,-0.7875,0,0,-0.7362,-0.7442,-0.7444,-0.747,-0.7526,-0.7549,-0.7572,-0.7613,-0.7628,-0.7664,-0.7684,-0.7727,-0.7744,-0.7768,-0.7797,-0.7807,-0.7797,-0.7825,-0.7826,-0.7818,-0.781,-0.7795,-0.7793,-0.7814,-0.7814,-0.7814,-0.7806,0,-0.7351,-0.7397,-0.7439,-0.7469,-0.7496,-0.7539,-0.7559,-0.7595,-0.7626,-0.7652,-0.7685,-0.7714,-0.7735,-0.775,-0.7762,-0.7796,-0.7796,-0.7797,-0.7832,-0.7833,-0.782,-0.7793,-0.7778,-0.7768,-0.7805,-0.7805,-0.7805,0,-0.7345,-0.7381,-0.7414,-0.7469,-0.7482,-0.7499,-0.7539,-0.7564,-0.7606,-0.7627,-0.7654,-0.7685,-0.771,-0.7726,-0.776,-0.776,-0.7777,-0.7796,-0.7796,-0.7801,-0.7818,-0.7796,-0.7765,-0.7764,-0.7805,-0.7805,-0.7805,0,-0.7304,-0.7361,-0.7388,-0.7408,-0.7472,-0.7483,-0.751,-0.7552,-0.7574,-0.7608,-0.7623,-0.7659,-0.7678,-0.7705,-0.7744,-0.7752,-0.7774,-0.7793,-0.7791,-0.779,-0.7794,-0.7793,-0.7765,-0.7805,-0.7805,-0.7805,-0.7805,0,-0.7287,-0.7306,-0.7371,-0.7388,-0.7409,-0.7456,-0.7476,-0.7506,-0.7543,-0.7565,-0.7604,-0.7623,-0.7674,-0.7699,-0.773,-0.7753,-0.7762,-0.7779,-0.7787,-0.7775,-0.7773,-0.7787,-0.7788,-0.7804,-0.7804,-0.7804,-0.7804,0,-0.7245,-0.729,-0.7322,-0.7381,-0.7396,-0.7409,-0.7458,-0.7475,-0.7507,-0.7535,-0.7544,-0.7594,-0.7626,-0.7668,-0.7712,-0.7733,-0.7752,-0.7765,-0.7739,-0.7744,-0.7739,-0.7739,-0.7719,-0.7718,-0.7758,-0.7757,-0.7757,0,-0.7232,-0.7247,-0.7307,-0.7326,-0.7352,-0.7381,-0.7404,-0.745,-0.7472,-0.752,-0.7531,-0.7566,-0.7596,-0.7645,-0.7684,-0.7718,-0.7731,-0.7722,-0.7737,-0.7725,-0.7731,-0.7729,-0.7731,-0.7718,-0.7717,-0.7717,-0.7716,0,-0.7203,-0.7224,-0.7256,-0.7296,-0.7322,-0.7355,-0.7389,-0.7402,-0.7455,-0.7477,-0.7511,-0.7534,-0.758,-0.7614,-0.7653,-0.7679,-0.7706,-0.7712,-0.7713,-0.7701,-0.7686,-0.7694,-0.7729,-0.7712,-0.7712,-0.7713,-0.7713,-0.7713,-0.7175,-0.719,-0.7235,-0.7269,-0.7301,-0.7332,-0.7351,-0.7386,-0.7416,-0.7458,-0.7483,-0.7516,-0.7556,-0.7611,-0.7636,-0.7661,-0.7672,-0.7673,-0.7674,-0.7674,-0.767,-0.7682,-0.7668,-0.7669,-0.7669,-0.7669,-0.7669,0,-0.7148,-0.7179,-0.721,-0.7258,-0.7284,-0.7309,-0.7348,-0.7368,-0.7397,-0.7433,-0.7463,-0.7501,-0.7534,-0.7576,-0.7612,-0.7624,-0.7637,-0.7631,-0.7631,-0.7636,-0.7658,-0.7654,-0.762,-0.762,-0.762,-0.762,-0.762,-0.762,-0.7137,-0.7165,-0.7191,-0.7234,-0.7265,-0.7299,-0.7319,-0.7347,-0.7376,-0.7418,-0.7446,-0.7474,-0.7512,-0.7551,-0.7582,-0.7593,-0.7604,-0.7595,-0.761,-0.763,-0.7634,-0.7639,-0.7635,-0.7597,-0.7597,-0.7586,-0.7586,-0.7585]}]]